Regional Weather Roundup
Issued by NWS Mt. Holly, NJ

Home | Current Version | Previous Version | Text Only | Print | Product List | Glossary On
Versions: 1 2 3 4 5 6 7 8 9 10 11 12 13 14 15 16 17 18 19 20 21 22 23 24 25 26 27 28 29 30 31 32 33 34 35 36 37 38 39 40 41 42 43 44 45 46 47 48 49 50
000
ASUS41 KPHI 101212
RWRPHI

REGIONAL WEATHER ROUNDUP
NATIONAL WEATHER SERVICE MOUNT HOLLY NJ
700 AM EST WED FEB 10 2016

NOTE:  "FAIR" INDICATES FEW OR NO CLOUDS BELOW 12,000 FEET WITH NO
SIGNIFICANT WEATHER AND/OR OBSTRUCTIONS TO VISIBILITY.

 * = STATION DOES NOT REPORT PRECIPITATION (E.G. RAIN, SNOW, ETC.)
        OR FOG.

NJZ015>026-101300-
SOUTHERN NEW JERSEY

CITY           SKY/WX    TMP DP  RH WIND       PRES   REMARKS
POMONA         LGT SNOW  31  27  85 W14       29.66R FOG     WCI  21
6HR MIN TEMP:  31; 6HR MAX TEMP:  33; 6HR PCP: TRACE;

WILDWOOD*      CLOUDY    30  25  80 W10G22    29.70R WCI  21
MILLVILLE      LGT SNOW  30  27  88 W13       29.68R FOG     WCI  20
WRIGHTSTOWN    FLURRIES  32  32 100 W9        29.62R WCI  24
MOUNT HOLLY    LGT SNOW  30  28  93 W9        29.66R FOG     WCI  22
TRENTON        LGT SNOW  30  27  88 W8        29.63R FOG     WCI  22
6HR MIN TEMP:  30; 6HR MAX TEMP:  32; 6HR PCP: TRACE;


$$
NJZ001>014-101300-
NORTHERN NEW JERSEY

CITY           SKY/WX    TMP DP  RH WIND       PRES   REMARKS
SUSSEX         MIX PCPN  30  27  88 SW5       29.57R WCI  25
ANDOVER*         N/A     30  28  92 CALM      29.58R
MORRISTOWN     CLOUDY    30  30 100 SW3       29.61R
NEWARK         LGT SNOW  32  30  93 SW9       29.61R FOG     WCI  24
TETERBORO      LGT SNOW  33  28  81 SW5       29.59S WCI  29
CALDWELL       LGT SNOW  31  28  89 SW3       29.60S FOG
SOMERVILLE     CLOUDY    32  29  88 VRB3      29.60R FOG
ALLAIRE*       CLOUDY    30  25  80 W7        29.61R WCI  23
TOMS RIVER*    CLOUDY    30  28  93 W9        29.63S WCI  22

$$
PAZ043-044-047-054-055-060>062-066>071-101300-
EASTERN PENNSYLVANIA

CITY           SKY/WX    TMP DP  RH WIND       PRES   REMARKS
PHILADELPHIA   LGT SNOW  31  26  82 W12       29.68R WCI  22
6HR MIN TEMP:  31; 6HR MAX TEMP:  34; 6HR PCP:  0.01;

NORTH PHILA    LGT SNOW  31  28  89 W9        29.67R FOG     WCI  23
BLUE BELL*       N/A     28  28 100 CALM      29.64R
DOYLESTOWN     LGT SNOW  28  27  96 W6        29.62R FOG     WCI  22
QUAKERTOWN*    CLOUDY    28  27  93 CALM      29.63R
PERKASIE*      FLURRIES  28  28 100 W5        29.63R WCI  23
POTTSTOWN      CLOUDY    28  25  88 W7        29.66R WCI  21
LANCASTER      CLOUDY    27  25  92 W10       29.67R WCI  17
COATESVILLE    LGT SNOW  27  27 100 W12       29.66R WCI  16
READING        CLOUDY    30  23  75 W8        29.65R WCI  22
6HR MIN TEMP:  29; 6HR MAX TEMP:  31; 6HR PCP: TRACE;

ALLENTOWN      CLOUDY    30  25  80 SW8       29.62R HAZE    WCI  23
6HR MIN TEMP:  30; 6HR MAX TEMP:  32; 6HR PCP: TRACE;

MOUNT POCONO   CLOUDY    25  20  81 W12       29.50S WCI  14
6HR MIN TEMP:  25; 6HR MAX TEMP:  26; 6HR PCP:  0.01;

HAZLETON       CLOUDY    27  23  86 W7        29.58R WCI  19
LEHIGHTON      CLOUDY    32  25  74 W3        29.62R
WILKES BARRE   CLOUDY    28  24  85 SW9       29.57R WCI  19

$$
DEZALL-MDZ008-012-015-019-020-101300-
DELAWARE AND EASTERN MARYLAND

CITY           SKY/WX    TMP DP  RH WIND       PRES   REMARKS
WILMINGTON     LGT SNOW  29  26  89 W14       29.70R FOG     WCI  18
6HR MIN TEMP:  29; 6HR MAX TEMP:  32; 6HR PCP:  0.01;

DOVER          LGT SNOW  28  28 100 W10       29.70R VSB 1   WCI  19
GEORGETOWN     LGT SNOW  29  27  92 W9        29.73R VSB 1   WCI  20
6HR MIN TEMP:  29; 6HR MAX TEMP:  33; 6HR PCP: TRACE;

EASTON         LGT SNOW  30  30 100 NW9       29.78R FOG     WCI  22
PATUXENT       CLOUDY    29  24  82 W9        29.77R WCI  20
OCEAN CITY     LGT SNOW  29  26  89 W10G22    29.73R FOG     WCI  20
WALLOPS ISLAND FLURRIES  30  26  85 NW13G23   29.76R WCI  20
CAMBRIDGE      CLOUDY    28  27  93 W7        29.75R WCI  21
SALISBURY      LGT SNOW  29  27  92 W10       29.75R FOG     WCI  20

$$
PAZ001-021-NYZ056-072-MDZ011-DCZ001-101300-
OTHER NEARBY LOCATIONS

CITY           SKY/WX    TMP DP  RH WIND       PRES   REMARKS
HARRISBURG     MOCLDY    30  21  69 W12       29.68R WCI  20
STATE COLLEGE  CLOUDY    25  18  74 W17       29.66R WCI  11
WILLIAMSPORT   CLOUDY    30  20  66 W13       29.63R WCI  20
BINGHAMTON     CLOUDY    25  18  74 W10       29.51R WCI  15
NEW YORK CITY  CLOUDY    33  27  78 W7        29.62R WCI  27
BALTIMORE      CLOUDY    30  19  63 W14G23    29.73R WCI  19
WASHINGTON DC  MOCLDY    32  16  51 NW20G29   29.77R WCI  20

$$



USA.gov is the U.S. government's official web portal to all federal, state and local government web resources and services.